Location: Czu?�w
(50.1404°N, 18.9919°E)
Time: 03:42:40
(UTC+00:00)

SL-4 R/B - Pass Details

Date: 27 October 2020
Orbit: 427 x 665 km, 51.6° (Epoch: 27 November)

Event Time Altitude Azimuth Distance (km) Brightness Sun altitude
Rises 16:03:47 0° 268° (W) 2,410 7.5 -6.2°
Reaches altitude 10° 16:05:51 10° 271° (W) 1,560 5.9 -6.5°
Maximum altitude 16:09:20 69° 355° (N) 494 1.8 -7.1°
Enters shadow 16:13:02 10° 80° (E) 1,656 3.8 -7.7°
